THOR ABLESTAR DEB, 549

Orbit data source: Space-Track

THOR ABLESTAR DEB, 549 is space debris in LEO originally from a launch on Thu, 29 Jun 1961 UTC launched from the Air Force Eastern Test Range (AFETR). Debris objects in space refer to the collection of defunct objects orbiting the Earth. Examples of debris include non-operational satellites, rocket bodies, and fragments generated from explosions, collisions, or faulty payload assembly.

Loading next visibility...
Identifier
549, 1961-015GJ
Orbit
LEO
Country
Flag of USUS
Related business
Manufacturer
Unknown
Mission
Spacecraft
Bus & Motor
Unknown
Mass
Unknown
Launch date (UTC)
1961-06-29 (64 years ago)
Launch vehicle
Unknown
Launch site
Air Force Eastern Test Range (AFETR)
Object type
Payload
Rocket body
Debris
Shape & HBR
Unknown shape, 0.1 m
Radar Cross Section
Small (<0.1 m²)

Expand to show TLE details & history
Last TLE update: 4 hours ago

TLE from 4 hours ago
0 THOR ABLESTAR DEB
1 00549U 61015GJ  25308.66573817  .00000056  00000-0  20949-3 0  9990
2 00549  66.6962  37.7693 0208136 108.0688  39.1919 13.36387633132912
Epoch: 2025-11-04T15:58Z
TLE epoch observation values (Epoch: 2025-11-04T15:58:39.777Z)
Latitude
28.46959°
Longitude
-79.48235°
Altitude
1,005.718 km
Speed
7.41 km/s
True Right ascension
13h 37m 19s
True Declination
28° 19' 50"
Sunlit
Object was in daylight at epoch
Visualization orbit readout
Latitude
Unknown
Longitude
Unknown
Altitude
Unknown
Speed
Unknown
Apparent Right ascension
Unknown
Apparent Declination
Unknown
Sunlit
N/A
Visualization observer readout
Local Sidereal Time
15:58:18
Azimuth
Unknown
Elevation
Unknown
Doppler factor
Unknown
Orbital elements
Apogee altitude
1,277.301 km
Perigee altitude
965.124 km
Semi-major axis
7,499.349 km
Eccentricity
0.02081
Inclination
66.6962°
RAAN
37.7693°
Arg. of periapsis
108.0688°
True anomaly
40.72987°
Mean anomaly
39.1919°
Eccentric anomaly
39.95777°
Mean motion
3.34201 °/min
Orbital period
107.72 mins
BSTAR
0.00020949
Loading maneuver chart data...
Computing Atmospheric mass density...

Documentation

Showing up to 5 results
|